When you browse on this site, cookies collect data to enhance your experience and personalize the content and advertising you see.
Visit our Privacy Policy to learn more. By continuing to use the site, you agree to this use of cookies and data.
  • en France
  • Liste des pays
  • À 7 jours
  • Température de l'eau
  • Carte satellitaire
  • Carte météo
  • Widgets météo
  • user-avatar
    Se connecter

    Météo par heure à Balakan

    Ce jour, 19 Juillet, Vendredi

    Heure Température Précipitation Vent Pression Humidité
    00:00 +26°C° 0 mm 1 m/s 724 mmHg 60%
    01:00 +26°C° 0 mm 1 m/s 724 mmHg 62%
    02:00 +25°C° 0 mm 1 m/s 724 mmHg 64%
    03:00 +25°C° 0 mm 1 m/s 724 mmHg 66%
    04:00 +25°C° 0 mm 1 m/s 725 mmHg 65%
    05:00 +26°C° 0 mm 1 m/s 725 mmHg 65%
    06:00 +27°C° 0 mm 1 m/s 726 mmHg 65%
    07:00 +28°C° 0 mm 1 m/s 726 mmHg 60%
    08:00 +30°C° 0 mm 2 m/s 726 mmHg 56%
    09:00 +31°C° 0 mm 2 m/s 726 mmHg 52%
    10:00 +32°C° 0 mm 2 m/s 726 mmHg 49%
    11:00 +34°C° 0 mm 2 m/s 726 mmHg 46%
    12:00 +35°C° 0 mm 3 m/s 726 mmHg 43%
    13:00 +36°C° 0 mm 3 m/s 726 mmHg 42%
    14:00 +36°C° 0 mm 3 m/s 726 mmHg 41%
    15:00 +37°C° 0 mm 3 m/s 726 mmHg 39%
    16:00 +36°C° 0 mm 2 m/s 726 mmHg 42%
    17:00 +36°C° 0 mm 2 m/s 726 mmHg 45%
    18:00 +34°C° 0 mm 1 m/s 727 mmHg 47%
    19:00 +32°C° 0 mm 1 m/s 727 mmHg 51%
    20:00 +30°C° 0 mm 1 m/s 727 mmHg 55%
    21:00 +28°C° 0 mm 1 m/s 727 mmHg 58%
    22:00 +28°C° 0 mm 1 m/s 727 mmHg 60%
    23:00 +27°C° 0 mm 1 m/s 728 mmHg 62%

    Demain, 20 Juillet, Samedi

    Heure Température Précipitation Vent Pression Humidité
    00:00 +26°C° 0 mm 1 m/s 728 mmHg 63%
    01:00 +26°C° 0 mm 1 m/s 728 mmHg 65%
    02:00 +25°C° 0 mm 1 m/s 728 mmHg 67%
    03:00 +24°C° 0 mm 1 m/s 728 mmHg 69%
    04:00 +25°C° 0 mm 1 m/s 728 mmHg 68%
    05:00 +26°C° 0 mm 1 m/s 728 mmHg 67%
    06:00 +27°C° 0 mm 1 m/s 729 mmHg 67%
    07:00 +29°C° 0 mm 1 m/s 729 mmHg 61%
    08:00 +30°C° 0 mm 1 m/s 729 mmHg 55%
    09:00 +32°C° 0 mm 2 m/s 729 mmHg 50%
    10:00 +34°C° 0 mm 2 m/s 729 mmHg 47%
    11:00 +35°C° 0 mm 3 m/s 730 mmHg 45%
    12:00 +36°C° 0 mm 3 m/s 730 mmHg 42%
    13:00 +37°C° 0 mm 3 m/s 729 mmHg 41%
    14:00 +37°C° 0 mm 3 m/s 729 mmHg 40%
    15:00 +37°C° 0 mm 3 m/s 729 mmHg 39%
    16:00 +37°C° 0 mm 3 m/s 729 mmHg 42%
    17:00 +36°C° 0 mm 2 m/s 729 mmHg 44%
    18:00 +36°C° 0 mm 2 m/s 730 mmHg 46%
    19:00 +34°C° 0 mm 2 m/s 730 mmHg 49%
    20:00 +31°C° 0 mm 2 m/s 730 mmHg 52%
    21:00 +29°C° 0 mm 2 m/s 730 mmHg 56%
    22:00 +28°C° 0 mm 2 m/s 730 mmHg 57%
    23:00 +27°C° 0 mm 2 m/s 731 mmHg 58%

    Après-demain, 21 Juillet, Dimanche

    Heure Température Précipitation Vent Pression Humidité
    00:00 +27°C° 0 mm 2 m/s 731 mmHg 60%
    01:00 +26°C° 0 mm 2 m/s 730 mmHg 60%
    02:00 +26°C° 0 mm 1 m/s 730 mmHg 60%
    03:00 +26°C° 0 mm 1 m/s 730 mmHg 61%
    04:00 +26°C° 0 mm 1 m/s 730 mmHg 61%
    05:00 +27°C° 0 mm 1 m/s 730 mmHg 61%
    06:00 +27°C° 0 mm 1 m/s 730 mmHg 61%
    07:00 +29°C° 0 mm 1 m/s 730 mmHg 56%
    08:00 +31°C° 0 mm 2 m/s 730 mmHg 51%
    09:00 +33°C° 0 mm 3 m/s 730 mmHg 46%
    10:00 +34°C° 0 mm 3 m/s 730 mmHg 43%
    11:00 +36°C° 0 mm 3 m/s 730 mmHg 41%
    12:00 +37°C° 0 mm 3 m/s 729 mmHg 38%
    13:00 +37°C° 0 mm 3 m/s 729 mmHg 37%
    14:00 +38°C° 0 mm 3 m/s 728 mmHg 35%
    15:00 +39°C° 0 mm 3 m/s 728 mmHg 34%
    16:00 +38°C° 0 mm 2 m/s 728 mmHg 36%
    17:00 +37°C° 0 mm 2 m/s 728 mmHg 39%
    18:00 +37°C° 0 mm 2 m/s 728 mmHg 41%
    19:00 +35°C° 0 mm 2 m/s 728 mmHg 44%
    20:00 +32°C° 0 mm 2 m/s 729 mmHg 47%
    21:00 +30°C° 0 mm 2 m/s 729 mmHg 50%
    22:00 +29°C° 0 mm 2 m/s 729 mmHg 51%
    23:00 +29°C° 0 mm 2 m/s 729 mmHg 52%

    22 Juillet, Lundi

    Heure Température Précipitation Vent Pression Humidité
    00:00 +28°C° 0 mm 2 m/s 728 mmHg 53%
    01:00 +28°C° 0 mm 1 m/s 728 mmHg 54%
    02:00 +27°C° 0 mm 1 m/s 728 mmHg 54%
    03:00 +27°C° 0 mm 1 m/s 728 mmHg 55%
    04:00 +27°C° 0 mm 1 m/s 728 mmHg 56%
    05:00 +28°C° 0 mm 1 m/s 728 mmHg 56%
    06:00 +29°C° 0 mm 1 m/s 728 mmHg 56%
    07:00 +30°C° 0 mm 1 m/s 728 mmHg 51%
    08:00 +32°C° 0 mm 1 m/s 727 mmHg 46%
    09:00 +34°C° 0 mm 1 m/s 727 mmHg 41%
    10:00 +36°C° 0 mm 2 m/s 727 mmHg 39%
    11:00 +37°C° 0 mm 2 m/s 727 mmHg 37%
    12:00 +38°C° 0 mm 2 m/s 726 mmHg 35%
    13:00 +39°C° 0 mm 2 m/s 726 mmHg 34%
    14:00 +39°C° 0 mm 2 m/s 726 mmHg 33%
    15:00 +39°C° 0 mm 2 m/s 726 mmHg 32%
    16:00 +39°C° 0 mm 2 m/s 726 mmHg 35%
    17:00 +37°C° 0 mm 1 m/s 726 mmHg 37%
    18:00 +36°C° 0 mm 1 m/s 726 mmHg 40%
    19:00 +34°C° 0 mm 1 m/s 726 mmHg 43%
    20:00 +32°C° 0 mm 1 m/s 726 mmHg 47%
    21:00 +30°C° 0 mm 1 m/s 727 mmHg 50%
    22:00 +29°C° 0 mm 1 m/s 727 mmHg 52%
    23:00 +29°C° 0 mm 1 m/s 727 mmHg 54%

    23 Juillet, Mardi

    Heure Température Précipitation Vent Pression Humidité
    00:00 +28°C° 0 mm 1 m/s 727 mmHg 56%
    01:00 +27°C° 0 mm 1 m/s 727 mmHg 57%
    02:00 +27°C° 0 mm 1 m/s 726 mmHg 59%
    03:00 +26°C° 0 mm 1 m/s 726 mmHg 60%
    04:00 +27°C° 0 mm 1 m/s 726 mmHg 60%
    05:00 +25°C° 0 mm 0 m/s 727 mmHg 60%
    06:00 +26°C° 0 mm 0 m/s 727 mmHg 61%
    07:00 +30°C° 0 mm 1 m/s 727 mmHg 55%
    08:00 +31°C° 0 mm 2 m/s 726 mmHg 50%
    09:00 +34°C° 0 mm 3 m/s 726 mmHg 44%
    10:00 +35°C° 0 mm 3 m/s 726 mmHg 42%
    11:00 +36°C° 0 mm 4 m/s 726 mmHg 39%
    12:00 +38°C° 0 mm 4 m/s 726 mmHg 36%
    13:00 +38°C° 0 mm 4 m/s 725 mmHg 36%
    14:00 +38°C° 0 mm 3 m/s 725 mmHg 35%
    15:00 +38°C° 0 mm 3 m/s 724 mmHg 34%
    16:00 +38°C° 0 mm 3 m/s 724 mmHg 36%
    17:00 +37°C° 0 mm 3 m/s 724 mmHg 38%
    18:00 +36°C° 0 mm 2 m/s 724 mmHg 40%
    19:00 +34°C° 0 mm 2 m/s 724 mmHg 44%
    20:00 +31°C° 0 mm 2 m/s 725 mmHg 49%
    21:00 +29°C° 0 mm 2 m/s 725 mmHg 53%
    22:00 +29°C° 0 mm 2 m/s 725 mmHg 54%
    23:00 +28°C° 0 mm 2 m/s 724 mmHg 56%

    24 Juillet, Mercredi

    Heure Température Précipitation Vent Pression Humidité
    00:00 +27°C° 0 mm 2 m/s 724 mmHg 57%
    01:00 +27°C° 0 mm 1 m/s 724 mmHg 59%
    02:00 +26°C° 0 mm 1 m/s 724 mmHg 61%
    03:00 +26°C° 0 mm 1 m/s 724 mmHg 62%
    04:00 +26°C° 0 mm 1 m/s 724 mmHg 62%
    05:00 +25°C° 0 mm 0 m/s 724 mmHg 61%
    06:00 +26°C° 0 mm 0 m/s 724 mmHg 61%
    07:00 +29°C° 0 mm 1 m/s 724 mmHg 56%
    08:00 +31°C° 0 mm 1 m/s 724 mmHg 50%
    09:00 +34°C° 0 mm 2 m/s 723 mmHg 45%
    10:00 +35°C° 0.1 mm 2 m/s 723 mmHg 42%
    11:00 +36°C° 0.1 mm 2 m/s 723 mmHg 40%
    12:00 +38°C° 0.1 mm 2 m/s 723 mmHg 37%
    13:00 +38°C° 0.1 mm 2 m/s 723 mmHg 35%
    14:00 +39°C° 0.1 mm 2 m/s 722 mmHg 34%
    15:00 +39°C° 0.1 mm 2 m/s 722 mmHg 33%
    16:00 +39°C° 0 mm 1 m/s 722 mmHg 34%
    17:00 +37°C° 0 mm 1 m/s 722 mmHg 36%
    18:00 +37°C° 0 mm 1 m/s 722 mmHg 37%
    19:00 +35°C° 0 mm 1 m/s 722 mmHg 41%
    20:00 +32°C° 0 mm 1 m/s 723 mmHg 45%
    21:00 +30°C° 0 mm 1 m/s 723 mmHg 48%
    22:00 +29°C° 0 mm 2 m/s 723 mmHg 51%
    23:00 +29°C° 0 mm 2 m/s 724 mmHg 53%
    Voir plus